📊 Raw Sensor Data
Showing records 50676 to 50700 of 85,137 total
| ID | Distance (ft) | Battery V | Battery A | Int Temp (°F) | Int Humid (%) | Ext Temp (°F) | Solar V | RSSI | SNR | Time Stamp |
|---|---|---|---|---|---|---|---|---|---|---|
| 34474 | 15.3 | 3.98 | -5 | 36 | 39 | 38 | 0.00 | -75 | 8 | 03/09/2025 05:45 AM |
| 34473 | 15.4 | 3.92 | -5 | 36 | 38 | 37 | 0.00 | -75 | 8 | 03/09/2025 05:30 AM |
| 34472 | 15.4 | 3.92 | -5 | 37 | 38 | 38 | 0.10 | -76 | 8 | 03/09/2025 05:15 AM |
| 34471 | 15.4 | 3.93 | -5 | 37 | 38 | 39 | 0.00 | -75 | 8 | 03/09/2025 05:00 AM |
| 34470 | 15.3 | 3.93 | -5 | 36 | 38 | 38 | 0.00 | -75 | 8 | 03/09/2025 04:45 AM |
| 34469 | 15.3 | 3.98 | -5 | 37 | 38 | 40 | 0.00 | -75 | 8 | 03/09/2025 04:30 AM |
| 34468 | 15.3 | 3.93 | -5 | 37 | 38 | 41 | 0.00 | -75 | 8 | 03/09/2025 04:15 AM |
| 34467 | 15.3 | 3.93 | -5 | 37 | 38 | 39 | 0.00 | -75 | 8 | 03/09/2025 04:00 AM |
| 34466 | 15.3 | 3.93 | -5 | 37 | 38 | 40 | 0.00 | -75 | 8 | 03/09/2025 03:45 AM |
| 34465 | 15.3 | 3.93 | -5 | 37 | 38 | 38 | 0.00 | -75 | 8 | 03/09/2025 03:30 AM |
| 34464 | 15.3 | 3.99 | -5 | 37 | 39 | 39 | 0.00 | -75 | 8 | 03/09/2025 03:15 AM |
| 34463 | 15.3 | 3.93 | -5 | 38 | 39 | 41 | 0.00 | -75 | 8 | 03/09/2025 03:00 AM |
| 34462 | 15.3 | 3.93 | -5 | 39 | 38 | 40 | 0.10 | -75 | 8 | 03/09/2025 01:45 AM |
| 34461 | 15.3 | 3.93 | -5 | 39 | 38 | 41 | 0.00 | -75 | 8 | 03/09/2025 01:30 AM |
| 34460 | 15.3 | 3.93 | -5 | 39 | 39 | 42 | 0.00 | -75 | 8 | 03/09/2025 01:15 AM |
| 34459 | 15.4 | 3.99 | -5 | 39 | 39 | 41 | 0.00 | -74 | 8 | 03/09/2025 01:00 AM |
| 34458 | 15.3 | 3.94 | -5 | 40 | 38 | 41 | 0.00 | -74 | 8 | 03/09/2025 12:45 AM |
| 34457 | 15.3 | 3.94 | -5 | 40 | 38 | 44 | 0.10 | -74 | 9 | 03/09/2025 12:30 AM |
| 34456 | 15.3 | 3.94 | -5 | 41 | 38 | 45 | 0.10 | -74 | 8 | 03/09/2025 12:15 AM |
| 34455 | 15.3 | 4.00 | -5 | 41 | 38 | 46 | 0.00 | -74 | 8 | 03/09/2025 12:00 AM |
| 34454 | 15.3 | 3.94 | -5 | 41 | 38 | 44 | 0.00 | -75 | 8 | 03/08/2025 11:45 PM |
| 34453 | 15.3 | 3.94 | -5 | 41 | 39 | 42 | 0.00 | -75 | 8 | 03/08/2025 11:30 PM |
| 34452 | 15.3 | 3.94 | -5 | 40 | 39 | 43 | 0.00 | -76 | 8 | 03/08/2025 11:15 PM |
| 34451 | 15.2 | 4.00 | -5 | 41 | 39 | 42 | 0.00 | -74 | 9 | 03/08/2025 11:00 PM |
| 34450 | 15.2 | 3.94 | -5 | 41 | 39 | 44 | 0.00 | -74 | 8 | 03/08/2025 10:45 PM |